Location: Gull Harbor
(47.1000°N, 122.9000°W)
Time: 08:57:00
(UTC-07:00)

ISS - Pass Details

Date: 26 March 2019
Orbit: 408 x 410 km, 51.6° (Epoch: 27 April)

Event Time Altitude Azimuth Distance (km) Brightness Sun altitude
Rises 20:38:43 0° 258° (WSW) 2,333 1.2 -11.9°
Reaches altitude 10° 20:40:50 10° 263° (W) 1,473 0.1 -12.2°
Maximum altitude 20:44:04 54° 342° (NNW) 506 -3.2 -12.7°
Enters shadow 20:46:47 14° 59° (ENE) 1,259 -1.7 -13.2°
